sat.trackr.live / text

‹ back to catalog

STARLINK-31607

NORAD 59394 · 2024-062W

PAYLOAD ACTIVE UNKNOWN

§ Identity

Operator
Country
US
Launch date
2024-04-02
Launch site
AFWTR
Launch vehicle
Mass (kg)
RCS (m²)

Purposes: comms

External: N2YO · Heavens-Above · Gunter

§ Orbital elements

Epoch: 2026-05-25T01:14:17.117664Z

Period
94.11 min
Inclination
53.1613°
Eccentricity
0.0001336
Mean motion
15.30181323 rev/d
Perigee alt
474.4 km
Apogee alt
476.2 km
Semi-major
6,853.4 km
B*
1.0790e-4
RAAN
260.9058°
Arg perigee
85.4005°
Mean anomaly
274.7149°
Rev number
12,135

§ Raw data

STARLINK-316071 59394U 24062W   26145.05158701  .00002836  00000+0  10790-3 0  99972 59394  53.1613 260.9058 0001336  85.4005 274.7149 15.30181323121359

JSON: /api/v1/satellites/59394 · /tle

For live sub-satellite position, see the globe view (requires WebGL).

§ Visibility from observer

Set your observer location to see the next 7 days of passes ≥ 10°. The values pass through the URL so the page stays shareable.

No JS? Fill the form by hand. The geolocation button needs JavaScript.